Location: Gold Fund Mine
(38.3819°N, 119.0996°W)
Time: 23:23:07
(UTC+00:00)

Cosmos 1980 Rocket - Pass Details

Date: 18 September 2020
Orbit: 831 x 848 km, 71.0° (Epoch: 20 October)

Event Time Altitude Azimuth Distance (km) Brightness Sun altitude
Exits shadow 13:01:02 10° 274° (W) 2,484 4.0 -8.7°
Reaches altitude 10° 13:01:07 10° 274° (W) 2,468 4.0 -8.6°
Maximum altitude 13:04:19 15° 309° (NW) 2,123 3.9 -8.0°
Drops below altitude 10° 13:07:31 10° 344° (NNW) 2,469 4.6 -7.4°
Sets 13:11:07 0° 7° (N) 3,404 5.5 -6.7°
